Regional Weather Roundup
Issued by NWS

Home | Current Version | Previous Version | Graphics & Text | Print | Product List | Glossary Off
Versions: 1 2 3 4 5 6 7 8 9 10 11 12 13 14 15 16 17 18 19 20 21 22 23 24 25 26 27 28 29 30 31 32 33 34 35 36 37 38 39 40 41 42 43 44 45 46 47 48 49 50

000
ASUS43 KMKX 220421
RWRWI

WISCONSIN REGIONAL WEATHER ROUNDUP
NATIONAL WEATHER SERVICE MILWAUKEE/SULLIVAN WI
1100 PM CDT MON JUL 21 2014

NOTE: "FAIR" INDICATES FEW OR NO CLOUDS BELOW 12,000 FEET WITH NO
SIGNIFICANT WEATHER AND/OR OBSTRUCTIONS TO VISIBILITY.

WIZ001-002-006>008-014>016-023>028-220500-
NORTHWEST WISCONSIN

CITY           SKY/WX    TMP DP  RH WIND       PRES   REMARKS
SUPERIOR ARPT  MOCLDY    68  65  91 N3        29.79S
ASHLAND        PTCLDY    80  72  76 S8        29.83F HX  84
HAYWARD        CLOUDY    79  72  79 S12G22    29.87S HX  82
SIREN          CLOUDY    81  71  71 S13G18    29.83S HX  84
RICE LAKE      CLOUDY    80  69  70 SE13G20   29.88F HX  82
LADYSMITH      PTCLDY    79  70  74 S10       29.91F HX  81
EAU CLAIRE     CLOUDY    80  69  69 S14       29.88F HX  83
MENOMONIE      MOCLDY    80  69  69 SE13      29.87F HX  82
NEW RICHMOND   PTCLDY    80  70  73 S15G21    29.84S HX  83
OSCEOLA        CLOUDY    81  73  75 SE9G16    29.85R HX  85
$$

WIZ003>005-009-010-017-018-220500-
NORTH CENTRAL WISCONSIN

CITY           SKY/WX    TMP DP  RH WIND       PRES   REMARKS
WOODRUFF       MOCLDY    77  73  86 S8        29.97R
RHINELANDER    CLEAR     73  68  84 S7        29.99S
EAGLE RIVER    CLEAR     73  67  80 S6        29.97R
LAND O LAKES   CLEAR     74  69  82 S6        29.98R
PHILLIPS       CLOUDY    76  69  79 S12G17    29.94S
TOMAHAWK       CLOUDY    73  68  83 CALM      29.98S
MEDFORD        CLEAR     73  67  80 S9        29.97S
MERRILL        CLOUDY    75  69  81 S5        29.98S
$$

WIZ029-030-035-036-043>047-220500-
CENTRAL WISCONSIN

CITY           SKY/WX    TMP DP  RH WIND       PRES   REMARKS
WAUSAU         MOCLDY    75  68  78 S6        29.97R
MOSINEE        MOCLDY    72  68  88 S9        29.99S
MARSHFIELD     CLEAR     75  67  76 S13       29.97F
STEVENS POINT  CLEAR     74  66  75 S8        29.99S
WAUPACA        CLEAR     76  69  78 S5        29.99S
WAUTOMA        CLEAR     76  69  79 S6        29.99F
WISC RAPIDS    CLEAR     76  67  73 S7        29.99S
CAMP DOUGLAS   CLEAR     72  70  94 SE3       29.97F
$$

WIZ011>013-019>022-031-037>040-048>050-220500-
NORTHEAST WISCONSIN

CITY           SKY/WX    TMP DP  RH WIND       PRES   REMARKS
ANTIGO         CLEAR     71  67  88 S9        30.00S
STURGEON BAY   CLEAR     70  61  73 S12       30.00F
GREEN BAY      CLEAR     72  65  78 S8        29.99F
MANITOWOC      CLEAR     67  62  84 S6        30.02F
APPLETON       CLEAR     73  66  78 VRB6      30.01S
CLINTONVILLE   CLEAR     72  66  83 S5        29.98F
OSHKOSH        CLEAR     73  68  84 S9        29.99F
$$

WIZ032>034-041-042-053>061-220500-
SOUTHWEST WISCONSIN

CITY           SKY/WX    TMP DP  RH WIND       PRES   REMARKS
LA CROSSE      CLOUDY    82  68  62 S10       29.92F HX  85
SPARTA         CLEAR     77  65  67 S8        29.96S
VIROQUA        FAIR      74  68  81 S8        29.98S
BOSCOBEL       CLEAR     79  68  69 S5        29.97F HX  81
PRAIRIE DU CHI CLEAR     79  66  65 SE7       29.96S HX  81
PLATTEVILLE    FAIR      76  69  80 S8        30.02S
$$

WIZ056-057-062-063-064-067-068-220500-
SOUTH CENTRAL WISCONSIN

CITY           SKY/WX    TMP DP  RH WIND       PRES   REMARKS
BARABOO/DELLS  CLEAR     76  66  70 S8        29.99S
LONE ROCK      CLEAR     81  69  67 VRB5      29.99S HX  84
WATERTOWN      CLEAR     73  68  86 SE5       30.02S
MADISON        CLEAR     78  68  71 S12       30.01S HX  80
MIDDLETON      FAIR      78  67  70 S8        30.01F
MONROE         CLEAR     73  68  83 S13       30.02F
JANESVILLE     CLEAR     77  64  65 S9        30.02S
$$

WIZ051-052-058>065-066-070>072-220500-
SOUTHEAST WISCONSIN

CITY           SKY/WX    TMP DP  RH WIND       PRES   REMARKS
MILWAUKEE      CLEAR     73  64  73 S7        30.03F
WAUKESHA       CLEAR     72  64  78 S5        30.05S
MILWAUKEE/TIMM CLEAR     73  63  68 S7        30.04S
RACINE         CLEAR     73  65  75 S5        30.05F
BURLINGTON     CLEAR     69  65  86 S5        30.05S
KENOSHA        CLEAR     73  66  78 S8        30.05S
FOND DU LAC    CLEAR     74  67  78 S9        30.00F
SHEBOYGAN      CLEAR     70  62  76 S5        30.02F
WEST BEND      CLEAR     70  63  78 CALM      30.03S
JUNEAU         CLEAR     73  53  48 SE12      30.03S
$$

LSZ147-162-220500-
LAKE SUPERIOR

STATION/POSITION TIME  TEMP    WIND        PRES    WAVE
                       AIR SEA DIR/SP/G            HT/PER
                 (UTC) (F)     (DEG/KT/KT) (MB)    (FT/S)
W MID LAKE BUOY  0350   53 41  160/ 10/ 12 1010.7F   0
PORT WING        0320   83     150/  5/ 15 1009.5F
SAXON HARBOR     0300           CALM  /  5 1011.2S
$$

LMZ867-665-643>646-220500-
LAKE MICHIGAN

STATION/POSITION TIME  TEMP    WIND        PRES    WAVE
                       AIR SEA DIR/SP/G            HT/PER
                 (UTC) (F)     (DEG/KT/KT) (MB)    (FT/S)
N MID LAKE BUOY  0350   62 56  200/ 12/ 14 1015.8R   2/ 5
NORTHPORT PIER   0300   70     170/  7/ 12 1015.9S
KEWAUNEE LAKESHO 0400   59     170/  9/ 11 1016.9F
SHEBOYGAN LAKESH 0400   69     180/ 15/ 16 1016.5F
PORT WASHINGTON  0300   64     190/  7/ 10 1017.6
ATWATER BUOY     0400   57     170/  8     1017.7F
MILWAUKEE LAKESH 0400   61     160/  2/  3   N/A
S MID LAKE BUOY  0350   72 70  160/ 10/ 12 1017.8S   1
KENOSHA   LAKESH 0400   70     180/  8/  9   N/A
$$

TC  - TEMPERATURE IN CELSIUS
VSB - VISIBILITY IN STATUTE MILES
WCI - WIND CHILL INDEX
HX  - HEAT INDEX



USA.gov is the U.S. government's official web portal to all federal, state and local government web resources and services.